When you browse on this site, cookies collect data to enhance your experience and personalize the content and advertising you see.
Visit our Privacy Policy to learn more. By continuing to use the site, you agree to this use of cookies and data.
  • In Spain
  • List of Countries
  • For 7 days
  • Water Temperature
  • Weather Map
  • Weather Widgets
  • user-avatar
    Login

    Hourly Weather Leatherhead

    Today, 13 December, Friday

    Time Temperature Precipitation Wind Pressure Humidity
    00:00 +6°C° 0.9 mm 4 mps 722 mmHg 91%
    01:00 +5°C° 0.4 mm 6 mps 722 mmHg 89%
    02:00 +4°C° 0.4 mm 8 mps 722 mmHg 86%
    03:00 +3°C° 0.4 mm 9 mps 722 mmHg 84%
    04:00 +3°C° 0.4 mm 9 mps 722 mmHg 84%
    05:00 +3°C° 0.4 mm 10 mps 723 mmHg 84%
    06:00 +3°C° 0.4 mm 10 mps 724 mmHg 84%
    07:00 +2°C° 0.3 mm 10 mps 725 mmHg 82%
    08:00 +2°C° 0.3 mm 10 mps 726 mmHg 79%
    09:00 +2°C° 0.3 mm 9 mps 727 mmHg 77%
    10:00 +3°C° 0 mm 9 mps 728 mmHg 76%
    11:00 +3°C° 0 mm 9 mps 729 mmHg 75%
    12:00 +4°C° 0 mm 8 mps 730 mmHg 74%
    13:00 +4°C° 0 mm 8 mps 731 mmHg 74%
    14:00 +4°C° 0 mm 8 mps 731 mmHg 73%
    15:00 +4°C° 0 mm 8 mps 731 mmHg 72%
    16:00 +4°C° 0 mm 7 mps 732 mmHg 74%
    17:00 +3°C° 0 mm 7 mps 732 mmHg 75%
    18:00 +2°C° 0 mm 6 mps 733 mmHg 77%
    19:00 +2°C° 0 mm 5 mps 732 mmHg 78%
    20:00 +2°C° 0 mm 5 mps 732 mmHg 79%
    21:00 +3°C° 0 mm 4 mps 732 mmHg 80%
    22:00 +4°C° 0.3 mm 4 mps 731 mmHg 85%
    23:00 +5°C° 0.3 mm 4 mps 730 mmHg 89%

    Tomorrow, 14 December, Saturday

    Time Temperature Precipitation Wind Pressure Humidity
    00:00 +5°C° 0.3 mm 4 mps 729 mmHg 93%
    01:00 +5°C° 0.2 mm 6 mps 730 mmHg 89%
    02:00 +5°C° 0.2 mm 8 mps 730 mmHg 84%
    03:00 +6°C° 0.2 mm 11 mps 731 mmHg 80%
    04:00 +5°C° 0 mm 9 mps 732 mmHg 76%
    05:00 +4°C° 0 mm 8 mps 733 mmHg 73%
    06:00 +2°C° 0 mm 7 mps 734 mmHg 70%
    07:00 +2°C° 0 mm 6 mps 735 mmHg 73%
    08:00 +2°C° 0 mm 6 mps 735 mmHg 77%
    09:00 +3°C° 0 mm 6 mps 736 mmHg 80%
    10:00 +3°C° 0.3 mm 6 mps 736 mmHg 81%
    11:00 +3°C° 0.3 mm 6 mps 737 mmHg 81%
    12:00 +3°C° 0.3 mm 7 mps 737 mmHg 82%
    13:00 +3°C° 0 mm 6 mps 738 mmHg 78%
    14:00 +3°C° 0 mm 6 mps 738 mmHg 73%
    15:00 +5°C° 0 mm 5 mps 738 mmHg 69%
    16:00 +3°C° 0 mm 5 mps 738 mmHg 72%
    17:00 +4°C° 0 mm 4 mps 737 mmHg 74%
    18:00 +3°C° 0 mm 4 mps 737 mmHg 77%
    19:00 +3°C° 0.6 mm 6 mps 736 mmHg 80%
    20:00 +4°C° 0.6 mm 7 mps 735 mmHg 83%
    21:00 +5°C° 0.6 mm 9 mps 735 mmHg 86%
    22:00 +5°C° 0.6 mm 9 mps 735 mmHg 81%
    23:00 +3°C° 0.6 mm 9 mps 735 mmHg 76%

    Day after tomorrow, 15 December, Sunday

    Time Temperature Precipitation Wind Pressure Humidity
    00:00 +3°C° 0.6 mm 9 mps 735 mmHg 70%
    01:00 +2°C° 0 mm 9 mps 736 mmHg 69%
    02:00 +2°C° 0 mm 9 mps 737 mmHg 67%
    03:00 +1°C° 0 mm 9 mps 738 mmHg 66%
    04:00 +1°C° 0 mm 8 mps 738 mmHg 69%
    05:00 +2°C° 0 mm 7 mps 739 mmHg 72%
    06:00 +2°C° 0 mm 6 mps 740 mmHg 75%
    07:00 +2°C° 0 mm 6 mps 740 mmHg 75%
    08:00 +3°C° 0 mm 6 mps 740 mmHg 74%
    09:00 +3°C° 0 mm 6 mps 741 mmHg 74%
    10:00 +4°C° 0 mm 6 mps 741 mmHg 72%
    11:00 +4°C° 0 mm 6 mps 742 mmHg 70%
    12:00 +5°C° 0 mm 6 mps 742 mmHg 67%
    13:00 +5°C° 0 mm 6 mps 742 mmHg 69%
    14:00 +6°C° 0 mm 5 mps 742 mmHg 72%
    15:00 +5°C° 0 mm 4 mps 741 mmHg 74%
    16:00 +5°C° 0 mm 5 mps 741 mmHg 74%
    17:00 +4°C° 0 mm 6 mps 741 mmHg 75%
    18:00 +4°C° 0 mm 6 mps 741 mmHg 76%
    19:00 +4°C° 0.3 mm 6 mps 741 mmHg 77%
    20:00 +4°C° 0.3 mm 6 mps 741 mmHg 77%
    21:00 +4°C° 0.3 mm 6 mps 742 mmHg 78%
    22:00 +5°C° 0.1 mm 5 mps 742 mmHg 77%
    23:00 +5°C° 0.1 mm 5 mps 742 mmHg 77%

    16 December, Monday

    Time Temperature Precipitation Wind Pressure Humidity
    00:00 +5°C° 0.1 mm 5 mps 742 mmHg 77%
    01:00 +5°C° 0 mm 5 mps 742 mmHg 77%
    02:00 +5°C° 0 mm 5 mps 742 mmHg 77%
    03:00 +5°C° 0 mm 5 mps 742 mmHg 76%
    04:00 +5°C° 0 mm 5 mps 743 mmHg 77%
    05:00 +5°C° 0 mm 4 mps 743 mmHg 78%
    06:00 +5°C° 0 mm 4 mps 743 mmHg 79%
    07:00 +5°C° 0 mm 4 mps 743 mmHg 80%
    08:00 +4°C° 0 mm 3 mps 744 mmHg 81%
    09:00 +4°C° 0 mm 3 mps 744 mmHg 82%
    10:00 +5°C° 0 mm 3 mps 744 mmHg 79%
    11:00 +7°C° 0 mm 3 mps 744 mmHg 76%
    12:00 +8°C° 0 mm 3 mps 745 mmHg 74%
    13:00 +8°C° 0 mm 2 mps 744 mmHg 76%
    14:00 +7°C° 0 mm 2 mps 744 mmHg 77%
    15:00 +7°C° 0 mm 2 mps 744 mmHg 79%
    16:00 +8°C° 0 mm 1 mps 744 mmHg 81%
    17:00 +7°C° 0 mm 1 mps 744 mmHg 82%
    18:00 +7°C° 0 mm 1 mps 744 mmHg 84%
    19:00 +7°C° 0 mm 1 mps 744 mmHg 85%
    20:00 +7°C° 0 mm 1 mps 745 mmHg 85%
    21:00 +7°C° 0 mm 1 mps 745 mmHg 86%
    22:00 +7°C° 0.1 mm 1 mps 745 mmHg 87%
    23:00 +7°C° 0.1 mm 1 mps 745 mmHg 87%

    17 December, Tuesday

    Time Temperature Precipitation Wind Pressure Humidity
    00:00 +7°C° 0.1 mm 1 mps 745 mmHg 88%
    01:00 +6°C° 0 mm 1 mps 745 mmHg 88%
    02:00 +6°C° 0 mm 1 mps 745 mmHg 88%
    03:00 +6°C° 0 mm 1 mps 745 mmHg 88%
    04:00 +6°C° 0 mm 1 mps 745 mmHg 88%
    05:00 +6°C° 0 mm 1 mps 746 mmHg 87%
    06:00 +6°C° 0 mm 1 mps 746 mmHg 87%
    07:00 +6°C° 0 mm 1 mps 746 mmHg 87%
    08:00 +6°C° 0 mm 1 mps 747 mmHg 87%
    09:00 +6°C° 0 mm 1 mps 747 mmHg 87%
    10:00 +7°C° 0 mm 1 mps 747 mmHg 85%
    11:00 +6°C° 0 mm 2 mps 748 mmHg 82%
    12:00 +7°C° 0 mm 2 mps 748 mmHg 79%
    13:00 +7°C° 0 mm 2 mps 748 mmHg 80%
    14:00 +7°C° 0 mm 2 mps 749 mmHg 80%
    15:00 +6°C° 0 mm 2 mps 749 mmHg 81%
    16:00 +6°C° 0 mm 2 mps 750 mmHg 83%
    17:00 +5°C° 0 mm 2 mps 750 mmHg 84%
    18:00 +4°C° 0 mm 2 mps 751 mmHg 86%
    19:00 +4°C° 0 mm 2 mps 751 mmHg 87%
    20:00 +4°C° 0 mm 2 mps 752 mmHg 88%
    21:00 +3°C° 0 mm 2 mps 753 mmHg 90%
    22:00 +4°C° 0 mm 1 mps 753 mmHg 89%
    23:00 +4°C° 0 mm 1 mps 754 mmHg 89%

    18 December, Wednesday

    Time Temperature Precipitation Wind Pressure Humidity
    00:00 +4°C° 0 mm 1 mps 754 mmHg 88%
    01:00 +4°C° 0 mm 1 mps 755 mmHg 87%
    02:00 +4°C° 0 mm 1 mps 755 mmHg 86%
    03:00 +4°C° 0 mm 1 mps 755 mmHg 84%
    04:00 +4°C° 0 mm 1 mps 755 mmHg 83%
    05:00 +4°C° 0 mm 1 mps 755 mmHg 83%
    06:00 +4°C° 0 mm 1 mps 756 mmHg 82%
    07:00 +4°C° 0 mm 1 mps 756 mmHg 85%
    08:00 +4°C° 0 mm 2 mps 756 mmHg 88%
    09:00 +4°C° 0 mm 2 mps 756 mmHg 91%
    10:00 +5°C° 0 mm 2 mps 756 mmHg 86%
    11:00 +5°C° 0 mm 3 mps 756 mmHg 82%
    12:00 +7°C° 0 mm 4 mps 756 mmHg 78%
    13:00 +7°C° 0 mm 3 mps 756 mmHg 80%
    14:00 +7°C° 0 mm 3 mps 756 mmHg 83%
    15:00 +5°C° 0 mm 3 mps 755 mmHg 85%
    16:00 +5°C° 0 mm 3 mps 755 mmHg 87%
    17:00 +4°C° 0 mm 3 mps 755 mmHg 89%
    18:00 +3°C° 0 mm 3 mps 755 mmHg 91%
    19:00 +4°C° 0 mm 3 mps 755 mmHg 92%
    20:00 +4°C° 0 mm 3 mps 755 mmHg 93%
    21:00 +4°C° 0 mm 3 mps 755 mmHg 94%
    22:00 +4°C° 0 mm 3 mps 754 mmHg 95%
    23:00 +5°C° 0 mm 3 mps 754 mmHg 95%
    Show more